STARLINK-4055

operational
NORAD ID: 53161 Int'l Des: 2022-083 Owner: SPXS Country: US Constellation: starlink
LEOCIRCULAR

About STARLINK-4055

Description loading...

Live Position

Loading 3D Globe...

Upcoming Passes

Altitude History

Altitude vs Time

uPlot chart will show altitude changes over time

Two-Line Element Set

1 53161U 22083AF 25251.33876485 .00002166 00000-0 15410-3 0 9999
2 53161 53.2163 262.7274 0001315 98.7764 261.3377 15.08843908173836
Epoch: Sep 8, 2025 • Age: 13 hours

Current Status

Altitude 541.2 km
Velocity 7.60 km/s
Sub-Earth Point 32.75°N, 101.63°E
Launch Date Jul 17, 2022
Age 3.1 years
Type internet

Technical Details

Classification Payload
Mass 297.00 kg
Dry Mass 275.00 kg
Total Mass 297.00 kg
Length 0.20 m
Diameter 2.80 m
Span 9.00 m
Shape Box + pan
Manufacturer SPXS
Bus Type Starlink
Phase Status In Orbit
Owner/State SPXS/US

Large Constellations

Loading constellations...